Home   Weather   Chicago   Past weeks
Flag for USA

Past Weather in Chicago, Illinois, USA — Yesterday and Last 2 Weeks

Now
45 °F

Passing clouds.


Feels Like: 42 °F
Forecast: 53 / 44 °F
Wind: 6 mph from West

Location: Chicago Midway Airport

Current Time: Oct 16, 2019 at 11:12:30 pm

Latest Report: Oct 16, 2019 at 9:53 pm


Visibility: 10 mi

Pressure: 30.03 "Hg

Humidity: 68%

Dew Point: 35 °F

Location of ChicagoLocation

Past Weather in Chicago — Graph

°F

Chicago Temperature Yesterday

Maximum temperature yesterday: 65 °F (at 3:15 pm)
Minimum temperature yesterday: 43 °F (at 3:53 am)
Average temperature yesterday: 54 °F

High & Low Weather Summary for the Past Weeks

 TemperatureHumidityPressure
High83 °F (Oct 1, 9:53 pm)100% (Oct 2, 8:41 pm)30.39 "Hg (Oct 2, 8:41 pm)
Low37 °F (Oct 12, 5:53 am)31% (Oct 7, 2:53 pm)29.69 "Hg (Oct 15, 2:53 pm)
Average57 °F67%30.02 "Hg
* Reported Oct 1 9:53 pm — Oct 16 9:53 pm, Chicago. Weather by CustomWeather, © 2019

Note: Actual official high and low records may vary slightly from our data, if they occured in-between our weather recording intervals... More about our weather records

Advertising

Chicago Weather History for the Previous 24 Hours

Scroll right to see more
 ConditionsComfort  
Time TempWeatherWind HumidityBarometerVisibility
9:53 pm
Wed, Oct 16
45 °FPassing clouds.6 mph68%30.03 "Hg10 mi
8:53 pm46 °FClear.7 mph66%30.01 "Hg10 mi
7:53 pm47 °FClear.8 mph64%30.00 "Hg10 mi
6:53 pm49 °FPassing clouds.8 mph57%29.99 "Hg10 mi
5:53 pm51 °FPartly sunny.9 mph52%29.98 "Hg10 mi
4:53 pm52 °FPartly sunny.15 mph53%29.97 "Hg10 mi
3:53 pm52 °FOvercast.16 mph50%29.96 "Hg10 mi
2:53 pm52 °FOvercast.16 mph53%29.95 "Hg10 mi
1:53 pm51 °FOvercast.15 mph56%29.95 "Hg10 mi
12:53 pm51 °FPartly sunny.20 mph56%29.94 "Hg10 mi
11:53 am51 °FOvercast.16 mph56%29.93 "Hg10 mi
10:53 am50 °FOvercast.18 mph59%29.91 "Hg10 mi
9:53 am49 °FPartly sunny.18 mph64%29.89 "Hg10 mi
8:53 am47 °FOvercast.21 mph66%29.88 "Hg10 mi
7:53 am46 °FOvercast.14 mph71%29.85 "Hg10 mi
6:53 am46 °FOvercast.15 mph71%29.84 "Hg10 mi
5:53 am46 °FOvercast.14 mph68%29.82 "Hg10 mi
4:53 am47 °FMostly cloudy.20 mph66%29.82 "Hg10 mi
4:37 am47 °FMostly cloudy.24 mph66%29.81 "Hg10 mi
3:53 am47 °FOvercast.17 mph66%29.79 "Hg10 mi
2:53 am47 °FOvercast.14 mph66%29.80 "Hg10 mi
1:53 am46 °FPassing clouds.13 mph68%29.80 "Hg10 mi
12:53 am48 °FPassing clouds.12 mph66%29.80 "Hg10 mi
11:53 pm
Tue, Oct 15
49 °FPassing clouds.13 mph61%29.80 "Hg10 mi
Weather by CustomWeather, © 2019

See weather overview